This demonstration page uses our WeatherBlox Daily Observations layout. Learn more.

Left ArrowRight Arrow

39.01783, -85.05884

Hourly Observations for January 27, 2021

Temp ( °F °C ) Dew Point ( °F °C ) Humidity (%) Winds ( mph kmh ) Pressure ( in mb ) Visibility ( mi km ) Precip ( " mm )
12:45 am 00:45 Cloudy 33 0.6 26 -3.3 75 75 WNW 8 13 30.13 1020 10 16 0.00 0.00
12:52 am 00:52 Cloudy 33 0.6 26 -3.3 75 75 VRB 7 11 30.09 1019 10 16 0.00 0.00
1:52 am 01:52 Cloudy 33 0.6 26 -3.3 75 75 VRB 7 11 30.11 1020 10 16 0.00 0.00
2:52 am 02:52 Cloudy 32 0 26 -3.3 79 79 NNW 8 13 30.14 1021 10 16 0.00 0.00
3:52 am 03:52 Cloudy 32 0 27 -2.8 82 82 NW 7 11 30.16 1022 9 14 0.00 0.00
4:52 am 04:52 Cloudy 32 0 27 -2.8 82 82 N 6 9 30.17 1022 8 13 0.00 0.00
5:52 am 05:52 Cloudy 33 0.6 28 -2.2 82 82 NNE 8 13 30.16 1021 7 11 0.00 0.00
6:52 am 06:52 Cloudy 32 0 27 -2.8 82 82 NE 9 15 30.14 1021 9 14 0.00 0.00
7:43 am 07:43 Cloudy 32 0 26 -3.3 79 79 N 9 15 30.22 1023 9 14 0.00 0.00
7:52 am 07:52 Cloudy 32 0 26 -3.3 79 79 N 10 17 30.19 1022 9 14 0.00 0.00
8:30 am 08:30 Cloudy 32 0 26 -3.3 79 79 N 10 17 30.24 1024 8 13 0.00 0.00
8:52 am 08:52 Cloudy 32 0 25 -3.9 75 75 N 9 15 30.21 1023 9 14 0.00 0.00
9:52 am 09:52 Cloudy 32 0 25 -3.9 75 75 NE 13 20 30.18 1022 8 13 0.00 0.00
10:52 am 10:52 Cloudy 32 0 26 -3.3 79 79 NE 9 15 30.21 1023 8 13 0.00 0.00
11:52 am 11:52 Cloudy 33 0.6 23 -5 66 66 ENE 9 15 30.25 1024 10 16 0.00 0.00
12:52 pm 12:52 Cloudy 33 0.6 24 -4.4 70 70 NNE 16 26 30.19 1022 10 16 0.00 0.00
1:52 pm 13:52 Cloudy 33 0.6 24 -4.4 70 70 NNE 12 19 30.18 1022 10 16 0.00 0.00
2:52 pm 14:52 Cloudy 33 0.6 24 -4.4 70 70 NNE 13 20 30.16 1021 10 16 0.00 0.00
3:52 pm 15:52 Cloudy 33 0.6 23 -5 66 66 NNE 10 17 30.19 1022 10 16 0.00 0.00
4:24 pm 16:24 Cloudy with Light Snow 32 0 24 -4.4 73 73 N 10 17 30.23 1024 3 5 0.00 0.00
4:30 pm 16:30 Cloudy with Light Snow 32 0 24 -4.4 73 73 NNE 10 17 30.23 1024 3 4 0.00 0.00
4:36 pm 16:36 Cloudy with Light Snow 31 -0.6 25 -3.9 79 79 NNE 9 15 30.23 1024 1 2 0.00 0.00
4:52 pm 16:52 Cloudy with Light Snow 30 -1.1 26 -3.3 85 85 N 10 17 30.20 1023 1 2 0.01 0.25
5:10 pm 17:10 Cloudy with Light Snow 30 -1.1 27 -2.8 88 88 N 12 19 30.23 1024 1 1 0.00 0.00
5:52 pm 17:52 Cloudy with Light Snow 30 -1.1 27 -2.8 88 88 NNE 12 19 30.19 1022 1 1 0.02 0.51
6:01 pm 18:01 Cloudy with Light Snow 30 -1.1 27 -2.8 88 88 NNE 14 22 30.23 1024 1 2 0.00 0.00
6:16 pm 18:16 Cloudy with Light Snow 30 -1.1 27 -2.8 88 88 NNE 13 20 30.24 1024 1 2 0.00 0.00
6:38 pm 18:38 Cloudy with Light Snow 30 -1.1 27 -2.8 88 88 N 14 22 30.25 1024 1 1 0.01 0.25
6:52 pm 18:52 Cloudy with Light Snow 30 -1.1 26 -3.3 85 85 N 15 24 30.23 1024 1 1 0.02 0.51
7:14 pm 19:14 Cloudy with Light Snow 29 -1.7 26 -3.3 89 89 N 14 22 30.27 1025 1 1 0.01 0.25
7:52 pm 19:52 Cloudy with Light Snow 28 -2.2 25 -3.9 88 88 N 15 24 30.26 1025 1 1 0.03 0.76
8:32 pm 20:32 Cloudy with Light Snow 27 -2.8 24 -4.4 89 89 N 15 24 30.32 1027 1 1 0.01 0.25
8:52 pm 20:52 Cloudy with Snow 27 -2.8 24 -4.4 89 89 N 17 28 30.29 1026 1 1 0.02 0.51
9:02 pm 21:02 Cloudy with Light Snow 27 -2.8 24 -4.4 89 89 N 18 30 30.34 1027 1 1 0.01 0.25
9:13 pm 21:13 Cloudy with Light Snow 27 -2.8 23 -5 85 85 N 15 24 30.35 1028 1 2 0.01 0.25
9:43 pm 21:43 Cloudy with Light Snow 27 -2.8 23 -5 85 85 N 18 30 30.36 1028 1 1 0.02 0.51
9:52 pm 21:52 Cloudy with Light Snow 27 -2.8 23 -5 85 85 N 12 19 30.32 1027 1 1 0.02 0.51
10:09 pm 22:09 Cloudy with Light Snow 26 -3.3 22 -5.6 84 84 NNW 18 30 30.37 1028 1 2 0.00 0.00
10:41 pm 22:41 Cloudy with Light Snow 26 -3.3 22 -5.6 84 84 N 15 24 30.38 1029 2 3 0.01 0.25
10:52 pm 22:52 Cloudy with Light Snow 26 -3.3 21 -6.1 81 81 N 14 22 30.34 1028 3 5 0.01 0.25
11:10 pm 23:10 Cloudy with Mist and Fog 25 -3.9 22 -5.6 88 88 N 10 17 30.39 1029 5 8 0.00 0.00
11:40 pm 23:40 Cloudy 25 -3.9 21 -6.1 85 85 N 10 17 30.40 1030 10 16 0.00 0.00
11:52 pm 23:52 Cloudy 24 -4.4 19 -7.2 81 81 N 12 19 30.36 1028 10 16 0.00 0.00
11:56 pm 23:56 Partly Cloudy 24 -4.4 18 -7.8 77 77 N 12 19 30.40 1030 10 16 0.00 0.00

Powered by AerisWeather